Consulta los datos en tiempo real de la estación municipal de Cànoves i Samalús
| Hora UTC | 15:30 |
|---|---|
| Temperatura | 22.4 ºC |
| Humedad | 52.0 % |
| Presión | 1008.4 hPa |
| Pluja | 0.2 mm |
| Velocidad viento | 10.7 km/h |
| Dirección viento | WSW |
| Radiación solar | 568.5 W/m² |
| Temperatura (ºC) | Humedad (%) | Presión (hPa) | Velocidad viento (km/h) | Precipitación (mm) | Radiación solar (W/m²) | |||||||||||||
|---|---|---|---|---|---|---|---|---|---|---|---|---|---|---|---|---|---|---|
| Hora UTC | Aire | Humedad | Presión | Vel. | Dir. | Vel. Max | Dir. | Intent. máx 5 min. | Rad. Sol. | |||||||||
| 00:05 | 12.0 | 97.3 | 1011.8 | 0.2 | WNW | 0.2 | WNW | 0.0 | 0.1 | |||||||||
| 00:10 | 11.9 | 97.3 | 1011.7 | 0.7 | WNW | 2.8 | WNW | 0.0 | 0.1 | |||||||||
| 00:15 | 11.8 | 97.3 | 1011.6 | 1.6 | NW | 2.8 | WNW | 0.0 | 0.1 | |||||||||
| 00:20 | 11.7 | 97.4 | 1011.5 | 0.6 | NW | 2.1 | NW | 0.0 | 0.1 | |||||||||
| 00:25 | 11.6 | 97.3 | 1011.4 | 0.0 | NNE | 0.0 | NW | 0.0 | 0.1 | |||||||||
| 00:30 | 11.4 | 97.2 | 1011.4 | 0.2 | SE | 1.8 | SE | 0.0 | 0.1 | |||||||||
| 00:35 | 11.3 | 97.2 | 1011.3 | 0.1 | NE | 1.4 | NE | 0.0 | 0.1 | |||||||||
| 00:40 | 11.3 | 97.4 | 1011.3 | 0.8 | WNW | 3.2 | WNW | 0.0 | 0.1 | |||||||||
| 00:45 | 11.1 | 97.3 | 1011.3 | 2.6 | WNW | 4.2 | NW | 0.0 | 0.1 | |||||||||
| 00:50 | 11.0 | 97.3 | 1011.3 | 3.0 | WNW | 4.2 | W | 0.0 | 0.1 | |||||||||
| 00:55 | 10.9 | 97.4 | 1011.3 | 2.8 | NNW | 3.9 | NNW | 0.0 | 0.1 | |||||||||
| 01:00 | 11.1 | 97.9 | 1011.2 | 3.0 | N | 4.6 | N | 0.0 | 0.1 | |||||||||
| 01:05 | 11.1 | 97.6 | 1011.2 | 3.9 | N | 5.3 | N | 0.0 | 0.1 | |||||||||
| 01:10 | 11.0 | 97.5 | 1011.1 | 1.9 | NNW | 3.5 | N | 0.0 | 0.1 | |||||||||
| 01:15 | 10.7 | 97.3 | 1011.0 | 2.0 | NW | 2.5 | NNW | 0.0 | 0.1 | |||||||||
| 01:20 | 10.6 | 97.4 | 1011.0 | 1.8 | NNW | 2.8 | NW | 0.0 | 0.1 | |||||||||
| 01:25 | 10.5 | 97.6 | 1010.9 | 2.3 | NNW | 2.8 | NW | 0.0 | 0.1 | |||||||||
| 01:30 | 10.5 | 97.7 | 1010.9 | 0.7 | NW | 2.5 | NW | 0.0 | 0.1 | |||||||||
| 01:35 | 10.5 | 97.8 | 1010.9 | 0.2 | NNW | 1.4 | NNW | 0.0 | 0.1 | |||||||||
| 01:40 | 10.4 | 97.8 | 1010.9 | 0.3 | NNW | 1.8 | NNW | 0.0 | 0.1 | |||||||||
| 01:45 | 10.3 | 97.8 | 1011.0 | 0.6 | NNW | 2.5 | NNW | 0.0 | 0.1 | |||||||||
| 01:50 | 10.3 | 97.9 | 1011.0 | 1.4 | NW | 2.8 | WNW | 0.0 | 0.1 | |||||||||
| 01:55 | 10.3 | 97.9 | 1011.0 | 4.0 | WNW | 6.0 | WNW | 0.0 | 0.1 | |||||||||
| 02:00 | 10.3 | 98.1 | 1011.0 | 4.0 | WNW | 6.0 | WNW | 0.0 | 0.1 | |||||||||
| 02:05 | 10.4 | 98.2 | 1011.0 | 4.1 | W | 6.0 | W | 0.0 | 0.1 | |||||||||
| 02:10 | 10.4 | 98.1 | 1011.0 | 1.7 | WSW | 4.9 | W | 0.0 | 0.1 | |||||||||
| 02:15 | 10.1 | 97.6 | 1011.0 | 0.8 | E | 2.8 | ENE | 0.0 | 0.1 | |||||||||
| 02:20 | 9.9 | 97.5 | 1011.0 | 0.0 | NNE | 0.0 | E | 0.0 | 0.1 | |||||||||
| 02:25 | 9.8 | 97.7 | 1011.1 | 0.2 | N | 2.1 | N | 0.0 | 0.1 | |||||||||
| 02:30 | 9.7 | 97.8 | 1011.1 | 1.1 | N | 3.2 | NNE | 0.0 | 0.1 | |||||||||
| 02:35 | 9.9 | 98.3 | 1011.2 | 2.4 | N | 3.9 | N | 0.0 | 0.1 | |||||||||
| 02:40 | 10.2 | 98.6 | 1011.1 | 2.1 | NNW | 3.5 | NW | 0.0 | 0.1 | |||||||||
| 02:45 | 10.0 | 98.0 | 1011.1 | 0.5 | NNW | 2.1 | NW | 0.0 | 0.1 | |||||||||
| 02:50 | 9.9 | 97.9 | 1011.0 | 2.0 | N | 4.2 | NNW | 0.0 | 0.1 | |||||||||
| 02:55 | 9.9 | 98.2 | 1011.0 | 1.7 | NW | 4.6 | NW | 0.0 | 0.1 | |||||||||
| 03:00 | 10.0 | 98.4 | 1011.0 | 2.3 | NNW | 4.6 | NW | 0.0 | 0.1 | |||||||||
| 03:05 | 10.0 | 98.3 | 1010.8 | 2.3 | NNW | 3.5 | NNE | 0.0 | 0.1 | |||||||||
| 03:10 | 10.0 | 98.2 | 1010.9 | 2.2 | NW | 4.9 | W | 0.0 | 0.1 | |||||||||
| 03:15 | 10.0 | 98.3 | 1010.8 | 1.3 | NW | 4.9 | WSW | 0.1 | 0.1 | |||||||||
| 03:20 | 9.9 | 98.1 | 1010.7 | 0.9 | NNW | 3.5 | NNW | 0.0 | 0.1 | |||||||||
| 03:25 | 9.9 | 98.3 | 1010.7 | 3.6 | NNW | 6.0 | N | 0.0 | 0.1 | |||||||||
| 03:30 | 10.0 | 98.3 | 1010.7 | 2.4 | N | 4.6 | NNW | 0.0 | 0.1 | |||||||||
| 03:35 | 9.9 | 98.2 | 1010.7 | 2.2 | NNW | 3.5 | NW | 0.0 | 0.1 | |||||||||
| 03:40 | 9.9 | 98.2 | 1010.6 | 3.5 | N | 5.3 | NNE | 0.0 | 0.1 | |||||||||
| 03:45 | 9.8 | 98.2 | 1010.5 | 2.4 | W | 5.6 | WSW | 0.0 | 0.1 | |||||||||
| 03:50 | 9.7 | 98.1 | 1010.5 | 1.1 | SSW | 3.5 | SSW | 0.0 | 0.1 | |||||||||
| 03:55 | 9.5 | 97.9 | 1010.6 | 2.4 | WNW | 9.9 | WSW | 0.0 | 0.1 | |||||||||
| 04:00 | 9.8 | 98.6 | 1010.6 | 7.3 | W | 15.9 | WSW | 0.0 | 0.1 | |||||||||
| 04:05 | 9.9 | 98.6 | 1010.6 | 8.8 | W | 13.4 | W | 0.0 | 0.1 | |||||||||
| 04:10 | 9.9 | 98.4 | 1010.6 | 9.5 | W | 15.2 | W | 0.0 | 0.2 | |||||||||
| 04:15 | 9.9 | 98.3 | 1010.6 | 7.4 | W | 13.1 | W | 0.0 | 0.2 | |||||||||
| 04:20 | 9.9 | 98.3 | 1010.6 | 7.6 | W | 14.5 | W | 0.0 | 0.5 | |||||||||
| 04:25 | 9.9 | 98.4 | 1010.7 | 6.7 | W | 11.6 | WSW | 0.0 | 1.2 | |||||||||
| 04:30 | 9.8 | 98.3 | 1010.7 | 6.4 | W | 10.9 | WSW | 0.0 | 2.3 | |||||||||
| 04:35 | 9.8 | 98.3 | 1010.6 | 6.4 | W | 9.5 | WSW | 0.0 | 4.0 | |||||||||
| 04:40 | 9.8 | 98.5 | 1010.6 | 6.8 | W | 10.2 | WSW | 0.0 | 6.2 | |||||||||
| 04:45 | 9.9 | 98.5 | 1010.6 | 6.2 | W | 10.2 | W | 0.0 | 8.0 | |||||||||
| 04:50 | 9.8 | 98.4 | 1010.5 | 5.7 | WNW | 9.5 | W | 0.0 | 9.8 | |||||||||
| 04:55 | 9.8 | 98.4 | 1010.5 | 4.1 | WNW | 6.7 | WNW | 0.0 | 11.7 | |||||||||
| 05:00 | 9.8 | 98.4 | 1010.5 | 3.8 | NW | 5.3 | W | 0.0 | 13.6 | |||||||||
| 05:05 | 9.9 | 98.6 | 1010.6 | 5.0 | NNW | 6.4 | NW | 0.0 | 19.3 | |||||||||
| 05:10 | 10.0 | 98.6 | 1010.6 | 4.7 | NNW | 6.0 | NNW | 0.0 | 20.9 | |||||||||
| 05:15 | 10.0 | 98.7 | 1010.5 | 4.6 | NNW | 6.4 | NNW | 0.0 | 22.1 | |||||||||
| 05:20 | 10.2 | 98.8 | 1010.6 | 4.7 | NNW | 6.7 | NNW | 0.0 | 27.7 | |||||||||
| 05:25 | 10.2 | 98.7 | 1010.6 | 3.5 | NNW | 5.3 | NNW | 0.0 | 103.4 | |||||||||
| 05:30 | 10.4 | 99.0 | 1010.6 | 3.5 | N | 4.9 | N | 0.0 | 121.8 | |||||||||
| 05:35 | 10.7 | 99.2 | 1010.6 | 3.0 | N | 5.3 | NNW | 0.0 | 135.0 | |||||||||
| 05:40 | 11.1 | 99.3 | 1010.6 | 1.6 | NNW | 3.2 | NNW | 0.0 | 148.5 | |||||||||
| 05:45 | 11.2 | 99.0 | 1010.7 | 3.4 | NW | 7.1 | WNW | 0.0 | 162.3 | |||||||||
| 05:50 | 11.4 | 98.9 | 1010.6 | 2.7 | W | 6.0 | WSW | 0.0 | 176.5 | |||||||||
| 05:55 | 11.6 | 98.8 | 1010.5 | 3.5 | WSW | 6.7 | WSW | 0.0 | 191.0 | |||||||||
| 06:00 | 11.7 | 98.5 | 1010.6 | 4.6 | SW | 8.1 | SW | 0.0 | 205.0 | |||||||||
| 06:05 | 11.7 | 98.3 | 1010.5 | 5.1 | W | 8.1 | W | 0.0 | 219.0 | |||||||||
| 06:10 | 11.9 | 98.5 | 1010.5 | 3.8 | W | 9.9 | W | 0.0 | 232.8 | |||||||||
| 06:15 | 12.0 | 98.3 | 1010.5 | 4.3 | WSW | 7.8 | WSW | 0.0 | 247.3 | |||||||||
| 06:20 | 12.0 | 98.1 | 1010.5 | 4.9 | WSW | 8.1 | WSW | 0.0 | 261.9 | |||||||||
| 06:25 | 12.2 | 98.1 | 1010.5 | 5.0 | WSW | 10.6 | W | 0.0 | 277.0 | |||||||||
| 06:30 | 12.3 | 98.0 | 1010.5 | 6.5 | SW | 11.6 | SW | 0.0 | 292.3 | |||||||||
| 06:35 | 12.5 | 97.8 | 1010.6 | 5.5 | SSW | 11.3 | SW | 0.0 | 307.6 | |||||||||
| 06:40 | 12.6 | 97.4 | 1010.6 | 7.5 | SSW | 16.2 | S | 0.0 | 318.2 | |||||||||
| 06:45 | 12.6 | 97.1 | 1010.7 | 6.0 | SSW | 12.0 | SSW | 0.0 | 230.2 | |||||||||
| 06:50 | 12.8 | 97.0 | 1010.7 | 6.1 | SSW | 10.6 | S | 0.0 | 346.9 | |||||||||
| 06:55 | 12.8 | 96.6 | 1010.7 | 7.0 | S | 13.4 | S | 0.0 | 367.2 | |||||||||
| 07:00 | 13.0 | 96.6 | 1010.7 | 5.4 | SSW | 10.9 | SSE | 0.0 | 382.5 | |||||||||
| 07:05 | 13.1 | 96.4 | 1010.8 | 5.6 | SW | 12.7 | WSW | 0.0 | 398.0 | |||||||||
| 07:10 | 13.3 | 96.4 | 1010.8 | 4.6 | SW | 9.9 | WSW | 0.0 | 413.8 | |||||||||
| 07:15 | 13.5 | 96.3 | 1010.8 | 5.7 | SSW | 12.7 | S | 0.0 | 428.3 | |||||||||
| 07:20 | 13.6 | 96.0 | 1010.8 | 8.4 | S | 18.4 | S | 0.0 | 442.8 | |||||||||
| 07:25 | 13.6 | 95.5 | 1010.8 | 10.1 | S | 19.1 | SSE | 0.0 | 457.8 | |||||||||
| 07:30 | 13.9 | 95.6 | 1010.9 | 7.5 | SSW | 15.2 | SW | 0.0 | 472.3 | |||||||||
| 07:35 | 14.1 | 95.2 | 1011.0 | 6.3 | SSW | 11.6 | SSW | 0.0 | 485.5 | |||||||||
| 07:40 | 14.5 | 94.7 | 1011.0 | 7.1 | SW | 20.1 | SW | 0.0 | 500.6 | |||||||||
| 07:45 | 14.6 | 93.8 | 1011.0 | 6.1 | WSW | 16.6 | WSW | 0.0 | 515.1 | |||||||||
| 07:50 | 14.6 | 92.6 | 1011.0 | 9.1 | WSW | 19.4 | WSW | 0.0 | 528.3 | |||||||||
| 07:55 | 14.8 | 92.2 | 1011.0 | 7.3 | SW | 17.6 | WSW | 0.0 | 541.2 | |||||||||
| 08:00 | 15.1 | 91.9 | 1011.0 | 7.6 | SW | 22.2 | WSW | 0.0 | 555.0 | |||||||||
| 08:05 | 15.1 | 91.0 | 1011.1 | 6.2 | SW | 15.9 | WNW | 0.0 | 564.3 | |||||||||
| 08:10 | 15.6 | 91.0 | 1011.1 | 6.4 | WSW | 16.6 | W | 0.0 | 579.6 | |||||||||
| 08:15 | 15.5 | 88.9 | 1011.1 | 9.6 | SW | 18.0 | SW | 0.0 | 590.5 | |||||||||
| 08:20 | 15.4 | 88.8 | 1011.1 | 9.0 | WSW | 15.2 | SW | 0.0 | 608.5 | |||||||||
| 08:25 | 15.6 | 88.2 | 1011.1 | 9.3 | SW | 19.1 | WSW | 0.0 | 624.4 | |||||||||
| 08:30 | 15.8 | 87.5 | 1011.2 | 7.5 | WSW | 16.9 | SW | 0.0 | 637.8 | |||||||||
| 08:35 | 16.2 | 87.7 | 1011.3 | 5.4 | SW | 13.1 | W | 0.0 | 652.8 | |||||||||
| 08:40 | 16.3 | 85.4 | 1011.3 | 7.7 | WSW | 16.9 | SW | 0.0 | 665.1 | |||||||||
| 08:45 | 16.3 | 84.7 | 1011.3 | 10.1 | SW | 20.8 | SSW | 0.0 | 679.1 | |||||||||
| 08:50 | 16.5 | 84.2 | 1011.3 | 6.1 | SW | 16.2 | SW | 0.0 | 685.8 | |||||||||
| 08:55 | 17.0 | 83.7 | 1011.3 | 7.2 | WSW | 15.5 | W | 0.0 | 695.6 | |||||||||
| 09:00 | 17.0 | 81.8 | 1011.2 | 10.2 | SW | 19.1 | SW | 0.0 | 640.9 | |||||||||
| 09:05 | 17.1 | 81.8 | 1011.3 | 8.8 | SW | 19.4 | SW | 0.0 | 713.1 | |||||||||
| 09:10 | 17.3 | 82.3 | 1011.3 | 7.5 | SSW | 18.7 | SSE | 0.0 | 726.3 | |||||||||
| 09:15 | 17.6 | 81.0 | 1011.3 | 5.7 | SSW | 15.5 | SSE | 0.0 | 742.1 | |||||||||
| 09:20 | 17.6 | 80.2 | 1011.3 | 8.6 | SSW | 18.0 | SW | 0.0 | 747.0 | |||||||||
| 09:25 | 17.9 | 80.3 | 1011.3 | 7.1 | SW | 14.8 | SW | 0.0 | 757.4 | |||||||||
| 09:30 | 18.3 | 80.6 | 1011.3 | 5.6 | S | 18.0 | S | 0.0 | 777.1 | |||||||||
| 09:35 | 18.2 | 77.6 | 1011.2 | 8.6 | SSW | 17.3 | S | 0.0 | 796.1 | |||||||||
| 09:40 | 18.3 | 78.2 | 1011.3 | 5.9 | SSW | 15.9 | SW | 0.0 | 802.0 | |||||||||
| 09:45 | 18.5 | 78.5 | 1011.2 | 8.1 | S | 15.9 | SW | 0.0 | 780.7 | |||||||||
| 09:50 | 18.8 | 77.6 | 1011.2 | 7.0 | SSW | 17.6 | SSW | 0.0 | 820.0 | |||||||||
| 09:55 | 19.1 | 76.2 | 1011.3 | 8.1 | SSW | 20.5 | SSW | 0.0 | 833.0 | |||||||||
| 10:00 | 19.0 | 76.2 | 1011.2 | 9.3 | SSW | 19.4 | SSW | 0.0 | 840.0 | |||||||||
| 10:05 | 19.2 | 75.1 | 1011.1 | 9.1 | S | 19.4 | SSE | 0.0 | 857.0 | |||||||||
| 10:10 | 19.2 | 74.3 | 1011.0 | 11.7 | S | 24.3 | S | 0.1 | 880.0 | |||||||||
| 10:15 | 19.5 | 74.0 | 1011.0 | 8.6 | S | 19.1 | SSE | 0.0 | 881.0 | |||||||||
| 10:20 | 19.9 | 72.3 | 1011.0 | 10.5 | S | 19.1 | SW | 0.0 | 912.0 | |||||||||
| 10:25 | 20.0 | 67.8 | 1011.0 | 8.7 | S | 18.4 | SSE | 0.0 | 956.0 | |||||||||
| 10:30 | 20.3 | 67.3 | 1010.9 | 9.9 | SW | 22.6 | SW | 0.0 | 956.0 | |||||||||
| 10:35 | 20.4 | 69.5 | 1010.9 | 8.2 | SSW | 18.7 | SW | 0.0 | 861.0 | |||||||||
| 10:40 | 20.4 | 69.0 | 1010.8 | 13.0 | S | 21.5 | S | 0.0 | 704.0 | |||||||||
| 10:45 | 20.2 | 65.4 | 1010.8 | 11.3 | SSW | 24.7 | SSW | 0.0 | 663.3 | |||||||||
| 10:50 | 20.6 | 63.2 | 1010.8 | 4.9 | SW | 13.8 | W | 0.0 | 714.7 | |||||||||
| 10:55 | 20.9 | 57.7 | 1010.8 | 8.4 | W | 26.8 | NW | 0.0 | 893.0 | |||||||||
| 11:00 | 20.9 | 60.6 | 1010.7 | 10.1 | SSW | 18.7 | SSW | 0.0 | 906.0 | |||||||||
| 11:05 | 20.8 | 59.4 | 1010.7 | 9.2 | SSW | 25.4 | WSW | 0.0 | 902.0 | |||||||||
| 11:10 | 21.1 | 55.6 | 1010.7 | 10.5 | S | 24.0 | SSE | 0.0 | 618.5 | |||||||||
| 11:15 | 20.8 | 56.6 | 1010.6 | 7.4 | S | 14.1 | S | 0.0 | 754.3 | |||||||||
| 11:20 | 21.0 | 53.9 | 1010.6 | 9.4 | SSW | 27.9 | SW | 0.0 | 758.6 | |||||||||
| 11:25 | 20.9 | 54.5 | 1010.6 | 7.0 | SW | 21.5 | SSW | 0.0 | 343.3 | |||||||||
| 11:30 | 20.8 | 56.5 | 1010.5 | 3.7 | SSW | 13.1 | S | 0.0 | 213.6 | |||||||||
| 11:35 | 20.5 | 58.3 | 1010.6 | 5.4 | SSW | 12.0 | SW | 0.0 | 179.0 | |||||||||
| 11:40 | 20.4 | 59.1 | 1010.6 | 3.7 | SSW | 15.2 | SSW | 0.0 | 176.9 | |||||||||
| 11:45 | 20.0 | 60.8 | 1010.6 | 8.1 | SSW | 17.6 | WSW | 0.0 | 264.4 | |||||||||
| 11:50 | 20.2 | 65.6 | 1010.5 | 5.3 | S | 15.5 | SW | 0.0 | 947.0 | |||||||||
| 11:55 | 21.1 | 63.7 | 1010.4 | 7.0 | S | 31.1 | S | 0.0 | 867.0 | |||||||||
| 12:00 | 21.0 | 60.4 | 1010.3 | 13.1 | S | 27.2 | SSW | 0.0 | 606.4 | |||||||||
| 12:05 | 20.8 | 59.4 | 1010.2 | 13.3 | S | 25.4 | S | 0.0 | 580.7 | |||||||||
| 12:10 | 20.9 | 59.3 | 1010.2 | 8.3 | S | 16.6 | S | 0.0 | 767.6 | |||||||||
| 12:15 | 20.8 | 58.1 | 1010.1 | 10.9 | SW | 18.0 | WSW | 0.0 | 225.8 | |||||||||
| 12:20 | 20.4 | 59.6 | 1010.1 | 6.3 | SW | 16.2 | SSW | 0.0 | 196.6 | |||||||||
| 12:25 | 20.4 | 57.2 | 1010.0 | 8.5 | SSW | 16.6 | WSW | 0.0 | 280.1 | |||||||||
| 12:30 | 20.4 | 58.1 | 1010.0 | 5.9 | S | 11.3 | SSE | 0.0 | 196.0 | |||||||||
| 12:35 | 20.4 | 56.4 | 1009.9 | 4.6 | S | 11.3 | SW | 0.0 | 404.1 | |||||||||
| 12:40 | 20.9 | 59.4 | 1009.9 | 3.8 | SSW | 12.0 | S | 0.0 | 463.5 | |||||||||
| 12:45 | 21.1 | 57.0 | 1009.8 | 8.2 | WSW | 16.6 | S | 0.0 | 388.2 | |||||||||
| 12:50 | 20.7 | 59.6 | 1009.8 | 9.3 | S | 20.5 | SW | 0.0 | 397.1 | |||||||||
| 12:55 | 20.8 | 61.5 | 1009.9 | 14.8 | S | 28.9 | S | 0.0 | 937.0 | |||||||||
| 13:00 | 21.1 | 60.6 | 1009.8 | 13.6 | S | 24.7 | SSW | 0.0 | 887.0 | |||||||||
| 13:05 | 21.4 | 60.2 | 1009.8 | 14.0 | S | 28.6 | S | 0.0 | 838.0 | |||||||||
| 13:10 | 21.6 | 59.1 | 1009.7 | 10.5 | S | 19.8 | SSW | 0.0 | 869.0 | |||||||||
| 13:15 | 21.9 | 58.8 | 1009.6 | 9.3 | S | 17.6 | SW | 0.0 | 725.9 | |||||||||
| 13:20 | 21.9 | 57.5 | 1009.7 | 10.7 | S | 22.6 | S | 0.0 | 913.0 | |||||||||
| 13:25 | 21.8 | 57.1 | 1009.6 | 10.6 | S | 19.1 | SSE | 0.0 | 763.4 | |||||||||
| 13:30 | 21.6 | 58.5 | 1009.5 | 12.6 | S | 26.1 | SSW | 0.0 | 291.1 | |||||||||
| 13:35 | 21.0 | 59.8 | 1009.5 | 8.2 | SW | 21.2 | SW | 0.0 | 342.3 | |||||||||
| 13:40 | 21.4 | 61.8 | 1009.4 | 8.9 | S | 26.8 | S | 0.0 | 841.0 | |||||||||
| 13:45 | 22.0 | 59.5 | 1009.3 | 13.3 | S | 28.2 | SSE | 0.0 | 762.7 | |||||||||
| 13:50 | 21.8 | 58.9 | 1009.3 | 11.0 | S | 25.4 | SE | 0.0 | 840.0 | |||||||||
| 13:55 | 22.1 | 57.8 | 1009.3 | 12.3 | S | 31.8 | S | 0.0 | 869.0 | |||||||||
| 14:00 | 22.3 | 55.8 | 1009.2 | 14.0 | S | 28.9 | SSW | 0.0 | 467.8 | |||||||||
| 14:05 | 21.5 | 54.8 | 1009.2 | 7.1 | S | 14.1 | SSW | 0.0 | 424.4 | |||||||||
| 14:10 | 21.7 | 55.9 | 1009.3 | 9.3 | SSW | 19.8 | SSW | 0.0 | 807.0 | |||||||||
| 14:15 | 22.0 | 56.6 | 1009.1 | 10.3 | S | 23.6 | SSE | 0.0 | 764.6 | |||||||||
| 14:20 | 21.9 | 54.5 | 1008.9 | 13.1 | S | 24.0 | S | 0.0 | 424.2 | |||||||||
| 14:25 | 21.3 | 55.3 | 1008.9 | 8.3 | SSW | 20.8 | SSW | 0.0 | 392.3 | |||||||||
| 14:30 | 21.6 | 55.4 | 1009.0 | 7.9 | SW | 16.2 | SW | 0.0 | 746.5 | |||||||||
| 14:35 | 22.0 | 55.3 | 1008.9 | 8.9 | SSW | 19.1 | SSW | 0.0 | 568.1 | |||||||||
| 14:40 | 21.7 | 55.5 | 1008.7 | 9.8 | SSW | 22.6 | SSE | 0.0 | 511.0 | |||||||||
| 14:45 | 21.9 | 57.0 | 1008.7 | 11.3 | SSE | 23.3 | S | 0.0 | 719.9 | |||||||||
| 14:50 | 22.2 | 54.8 | 1008.7 | 10.8 | SSW | 20.8 | SE | 0.0 | 681.5 | |||||||||
| 14:55 | 22.1 | 55.1 | 1008.6 | 9.7 | SSW | 24.7 | SSW | 0.0 | 667.0 | |||||||||
| 15:00 | 22.4 | 54.9 | 1008.6 | 9.1 | S | 27.2 | S | 0.0 | 650.4 | |||||||||
| 15:05 | 22.3 | 54.8 | 1008.5 | 9.0 | SSW | 17.3 | S | 0.0 | 622.2 | |||||||||
| 15:10 | 22.2 | 54.1 | 1008.4 | 9.1 | SSW | 20.1 | SSW | 0.0 | 401.4 | |||||||||
| 15:15 | 22.1 | 54.1 | 1008.4 | 10.9 | S | 25.8 | S | 0.0 | 655.7 | |||||||||
| 15:20 | 22.2 | 53.6 | 1008.4 | 12.0 | S | 23.6 | S | 0.0 | 625.2 | |||||||||
| 15:25 | 22.2 | 53.4 | 1008.4 | 9.1 | SSW | 25.8 | W | 0.0 | 589.1 | |||||||||
| 15:30 | 22.4 | 52.0 | 1008.4 | 10.7 | WSW | 22.9 | WSW | 0.0 | 568.5 | |||||||||
| Máxima | 22.4 | 99.3 | 1011.8 | 14.8 | S | 31.8 | S | 0.1 | 956.0 | |||||||||
| Mínima | 9.5 | 52.0 | 1008.4 | |||||||||||||||
| Total | 0.2 | |||||||||||||||||